星链-3525 (STARLINK-3525 )

导读

STARLINK-3525是美国SpaceX公司于2022年2月21日发射的星链卫星,属于Starlink V1.0平台,运行在近地轨道,近地点约355千米,远地点约357千米,轨道倾角43°,绕地球一周约需91.7分钟。作为星链全球卫星互联网项目的一员,它为全球,尤其是偏远地区提供高速低延迟互联网服务,助力缩小数字鸿沟,同时也可支持军事、航空等领域通信需求,推动互联网普及,带来广泛经济效益。

Basic Information
目录编号:
51733
目录名称:
STARLINK-3525
国际标识:
2022-016V
轨道中心:
EARTH
卫星名称:
星链-3525
卫星全名:
星链-3525 (STARLINK-3525 )
卫星状态:
在轨 (已飞行1657 天)
发射日期:
2022-02-21 UTC
国别 :
美国 (US)
星等 :
--
Orbit Information
数据来源 国际轨道数据 AOE轨道数据
星历时间 2026-09-05T12:54:27+0800
11小时前
查看轨道信息
2026-09-03T22:00:00+0800
2天前
查看轨道信息
半长轴 6840.898km 6840.85km
偏心率 0.0001264 0.000183
轨道倾角 53.159° 53.157°
近地点辐角 90.200° 133.530°
升交点赤经 221.001° 228.580°
平近点角 269.915° 266.776°
近地点 461.896km 461.461km
远地点 463.626km 463.965km
周期 93.849分钟 93.848分钟
每日圈数 15.343807 15.34397
Detailed Information
固有亮度:
5
最大亮度:
2.5
卫星平台:
Starlink v1.5
覆盖范围:
全球
运营商:
太空探索技术公司
运营商所在国:
美国
制造商(研发单位):
太空探索技术公司
制造商所在国:
美国
使用方式:
暂无
Satellite Introduction
星链(Starlink)计划是由太空探索技术公司(SpaceX)提出的一个巨型低轨卫星互联网星座项目,计划在2019年至2024年间在太空搭建由约1.2万颗卫星组成的“星链”网络,其中1584颗将部署在地球上空550千米处的近地轨道,并从2020年开始工作。该卫星仍在工作。
2D Orbit Map
3D Orbit Map
Orbit Altitude Analysis Chart
Orbit Inclination Analysis Chart
Orbit Comprehensive Analysis Chart
View Comprehensive Chart
Conjunction Data List
Event ID Objects TCA Miss Dist (km) Collision Risk Probability Collision Risk Index (CRI) Action
CDM_260908-011905-173306-856521
2026-09-08T
01:19:53+0000
1.192 km
极远距离
4.460504E-6 低风险 0.48
CDM_260907-094205-173305-892122
NEXSAT-1 (58921)
2026-09-07T
09:42:08+0000
1.879 km
极远距离
3.06072E-6 低风险 0.45
CDM_260908-051405-173306-856521
2026-09-08T
05:14:22+0000
1.370 km
极远距离
2.835452E-6 低风险 0.44
CDM_260907-133505-173305-742421
OBJECT A (57424)
2026-09-07T
13:35:47+0000
2.007 km
极远距离
2.536488E-6 低风险 0.43
CDM_260907-222205-173305-212221
2026-09-07T
22:22:29+0000
2.520 km
极远距离
1.420844E-6 低风险 0.38
CDM_260906-134305-173305-696021
2026-09-06T
13:43:26+0000
2.868 km
极远距离
1.415809E-6 低风险 0.38
CDM_260829-045804-578605-173322
2026-08-29T
04:58:23+0000
2.908 km
极远距离
1.215274E-6 低风险 0.37
CDM_260908-034005-173306-856521
2026-09-08T
03:40:34+0000
2.426 km
极远距离
6.873457E-7 极低风险 0.32
CDM_260908-025305-173306-856521
2026-09-08T
02:53:40+0000
2.533 km
极远距离
6.419967E-7 极低风险 0.31